Regional Weather Roundup
Issued by NWS

Home | Current Version | Previous Version | Graphics & Text | Print | Product List | Glossary On
Versions: 1 2 3 4 5 6 7 8 9 10 11 12 13 14 15 16 17 18 19 20 21 22 23 24 25 26 27 28 29 30 31 32 33 34 35 36 37 38 39 40 41 42 43 44 45 46 47 48 49 50
000
ASUS43 KDTX 310610
RWRMI
MICHIGAN HOURLY REGIONAL WEATHER ROUNDUP
NATIONAL WEATHER SERVICE DETROIT/PONTIAC MI
100 AM EST SAT JAN 31 2015

NOTE: "FAIR" INDICATES FEW OR NO CLOUDS BELOW 12,000 FEET WITH NO
SIGNIFICANT WEATHER AND/OR OBSTRUCTION TO VISIBILITY.

MIZ047>049-052>055-059>063-066>070-074>076-081>083-310700-
SOUTHEAST LOWER MICHIGAN

CITY           SKY/WX    TMP DP  RH WIND       PRES   REMARKS
ADRIAN         PTCLDY    15   9  76 NW3       30.38F
6HR MIN TEMP:  13; 6HR MAX TEMP:  18;

ALMA           MOCLDY    16  11  80 CALM      30.34F
ANN ARBOR      PTCLDY    10   6  84 CALM      30.37F
BAD AXE        PTCLDY     6   0  77 S3        30.35F
CARO           CLEAR      3   0  86 CALM      30.35F
DETROIT CITY   MOCLDY    15   4  61 S6        30.39F WCI   6
6HR MIN TEMP:  13; 6HR MAX TEMP:  18;

DETROIT        MOCLDY    13   6  74 CALM      30.40F
6HR MIN TEMP:  12; 6HR MAX TEMP:  18;

FLINT          PTCLDY    16   6  65 SW6       30.35F WCI   7
6HR MIN TEMP:   7; 6HR MAX TEMP:  16;

GROSSE ILE     CLOUDY    16   9  73 SE3       30.38F
HILLSDALE      CLEAR     10   7  87 CALM      30.33F
6HR MIN TEMP:  10; 6HR MAX TEMP:  18;

HOWELL         PTCLDY    15   8  75 S5        30.35S WCI   7
6HR MIN TEMP:  11; 6HR MAX TEMP:  15;


CITY           SKY/WX    TMP DP  RH WIND       PRES   REMARKS
JACKSON        CLOUDY    15   8  73 CALM      30.35F
6HR MIN TEMP:  10; 6HR MAX TEMP:  16;

LAMBERTVILLE   PTCLDY    18  10  73 CALM      30.39S
LANSING        MOCLDY    17  10  74 SW3       30.35F
6HR MIN TEMP:  16; 6HR MAX TEMP:  18;

LAPEER         FAIR       2  -2  85 CALM      30.35F
MASON          CLOUDY    16   9  76 CALM      30.34F
MONROE         MOCLDY    16  10  79 CALM      30.37F
MT. CLEMENS    PTCLDY     8   2  77 S5        30.36F WCI  -1
6HR MIN TEMP:   5; 6HR MAX TEMP:  10;

PONTIAC        PTCLDY    12   4  70 CALM      30.34F
6HR MIN TEMP:  10; 6HR MAX TEMP:  15;

PORT HOPE        N/A      9   0  67 S3        30.34F
6HR MIN TEMP:   5; 6HR MAX TEMP:  12;

PORT HURON     PTCLDY     5   0  78 S3        30.38F
TRI CITIES     CLOUDY    16   8  71 SW3       30.36S
6HR MIN TEMP:  14; 6HR MAX TEMP:  18;

TROY           CLOUDY    16   5  62 SW3       30.39F
SAGINAW HB     MOCLDY    16  10  79 SW6       30.35F WCI   7
$$
MIZ043>046-050>051-056>058-064>065-071>073-077>080-310700-
SOUTHWEST LOWER MICHIGAN

CITY           SKY/WX    TMP DP  RH WIND       PRES   REMARKS
BATTLE CREEK   PTCLDY    13   7  77 S5        30.34F WCI   5
6HR MIN TEMP:  13; 6HR MAX TEMP:  22;

BENTON HARBOR  CLEAR     13  10  88 CALM      30.36F
6HR MIN TEMP:  13; 6HR MAX TEMP:  21;

BIG RAPIDS     CLOUDY    12   9  88 CALM      30.30F
6HR MIN TEMP:  10; 6HR MAX TEMP:  17;

COLDWATER      CLEAR     11   9  91 CALM      30.35F
6HR MIN TEMP:  11; 6HR MAX TEMP:  18;

FREMONT        CLOUDY    16   8  71 CALM      30.30F
HOLLAND        MOCLDY    21  14  74 S9        30.34F WCI  11
6HR MIN TEMP:  19; 6HR MAX TEMP:  24;

GRAND RAPIDS   CLOUDY    19  12  74 S8        30.33F WCI   9
6HR MIN TEMP:  17; 6HR MAX TEMP:  20;

IONIA          CLOUDY    19  14  81 S3        30.33F
KALAMAZOO      CLEAR     18  12  77 CALM      30.35F
6HR MIN TEMP:  16; 6HR MAX TEMP:  23;

LUDINGTON      MOCLDY    18  11  74 SE3       30.31F
6HR MIN TEMP:  15; 6HR MAX TEMP:  18;

MARSHALL       MOCLDY    12   8  85 CALM      30.34F
MOUNT PLEASANT MOCLDY    11   8  85 CALM      30.33F
6HR MIN TEMP:  10; 6HR MAX TEMP:  17;

MUSKEGON       MOCLDY    27  16  63 SW9       30.32F WCI  18
6HR MIN TEMP:  17; 6HR MAX TEMP:  27;

SOUTH HAVEN    CLEAR     20  14  77 S3        30.35F
$$
MIZ016>042-310700-
NORTHERN LOWER MICHIGAN

CITY           SKY/WX    TMP DP  RH WIND       PRES   REMARKS
ALPENA         CLOUDY    11   4  73 S5        30.32F WCI   3
6HR MIN TEMP:   2; 6HR MAX TEMP:  11;

BEAVER ISLAND  LGT SNOW  20  17  88 SW3       30.25F
6HR MIN TEMP:  10; 6HR MAX TEMP:  20;

CADILLAC       FLURRIES  13   8  81 S3        30.25F
CHARLEVOIX     LGT SNOW  16  12  82 S8        30.30F WCI   5
6HR MIN TEMP:  16; 6HR MAX TEMP:  18;

FRANKFORT      CLOUDY    18  13  79 SE3       30.28F
GAYLORD        CLOUDY    11   7  84 SW6       30.24F WCI   1
6HR MIN TEMP:  11; 6HR MAX TEMP:  13;

GRAYLING       CLOUDY     8   5  85 CALM      30.28F
6HR MIN TEMP:   4; 6HR MAX TEMP:  16;

HARBOR SPRINGS CLOUDY    15  10  80 CALM      30.27F
HOUGHTON LAKE  CLOUDY     9   5  84 S3        30.29F
6HR MIN TEMP:   5; 6HR MAX TEMP:  15;

MANISTEE       PTCLDY    16   7  67 SE3       30.30F
OSCODA         MOCLDY     7   1  75 SW5       30.34F WCI  -2
PELLSTON       LGT SNOW  13   9  84 SE3       30.28F FOG
6HR MIN TEMP:  12; 6HR MAX TEMP:  16; 6HR PCP: TRACE;

ROGERS CITY    CLOUDY    14   7  73 S5        30.32F WCI   6
TRAVERSE CITY  CLOUDY    16   8  71 CALM      30.28F
6HR MIN TEMP:  13; 6HR MAX TEMP:  18; 6HR PCP: TRACE;

$$
MIZ007>008-015-310700-
EASTERN UPPER MICHIGAN

CITY           SKY/WX    TMP DP  RH WIND       PRES   REMARKS
KINROSS        CLOUDY    10   9  92 S3        30.26S
6HR MIN TEMP:  10; 6HR MAX TEMP:  12;

MACKINAC ISLAN LGT SNOW  15  11  84 S3        30.26F
6HR MIN TEMP:  13; 6HR MAX TEMP:  16;

NEWBERRY       CLOUDY    10   7  87 CALM      30.22F
S. S. MARIE    CLOUDY    10   5  80 CALM      30.25F
6HR MIN TEMP:   9; 6HR MAX TEMP:  11; 6HR PCP: TRACE;

MUNISING         N/A     16  10  77 S7        30.21F WCI   6
6HR MIN TEMP:  14; 6HR MAX TEMP:  16;

$$
MIZ004>006-011>014-085-310700-
CENTRAL UPPER MICHIGAN

CITY           SKY/WX    TMP DP  RH WIND       PRES   REMARKS
MANISTIQUE     FLURRIES  18  15  86 SW9       30.23F WCI   7
6HR MIN TEMP:   7; 6HR MAX TEMP:  19;

ESCANABA       CLOUDY    18  10  73 SW8       30.24F WCI   7
6HR MIN TEMP:  14; 6HR MAX TEMP:  18;

MENOMINEE      CLOUDY    19  10  68 SW6       30.24F WCI  11
6HR MIN TEMP:  16; 6HR MAX TEMP:  19;

SAWYER-GWINN   LGT SNOW  14  10  86 SW8       30.16F WCI   3
$$
MIZ001>003-009>011-084-310700-
WESTERN UPPER MICHIGAN

CITY           SKY/WX    TMP DP  RH WIND       PRES   REMARKS
IRON MOUNTAIN  CLOUDY    18   6  59 S3        30.18F
6HR MIN TEMP:  15; 6HR MAX TEMP:  18; 6HR PCP: TRACE;

HOUGHTON       LGT SNOW  15  11  83 SW6       30.12F FOG     WCI   6
6HR MIN TEMP:   8; 6HR MAX TEMP:  16; 6HR PCP:  0.01;

COPPER HARBOR    N/A     17  11  77 SW9       30.15F WCI   6
6HR MIN TEMP:  15; 6HR MAX TEMP:  18;

IRONWOOD       CLOUDY    18  10  73 SW9       30.10F WCI   6
6HR MIN TEMP:  16; 6HR MAX TEMP:  18;

$$

ABBREVIATIONS USED IN REMARKS
   TC - TEMPERATURE IN CELSIUS
  WCI - WIND CHILL INDEX
   HX - HEAT INDEX
  VSB - VISIBILITY



USA.gov is the U.S. government's official web portal to all federal, state and local government web resources and services.